Home > Weather > Noumea > Past weeks

Flag for New Caledonia Past Weather in Noumea, New Caledonia, New Caledonia — Yesterday and Last 2 Weeks

Now
68 °F

Partly cloudy.


Feels Like: 68 °F
Forecast: 68 / 76 °F
Wind: 3 mph from North

Location: La Tontouta Nlle-Caledonie

Current Time: Jul 30, 2016 at 5:05:22 AM

Latest Report: Jul 30, 2016 at 4:30 AM


Visibility: N/A

Pressure: 29.95 "Hg

Humidity: 94%

Dew Point: 66 °F

Location of NoumeaLocation

Past Weather in Noumea — Graph

°F

Noumea Temperature Yesterday

Maximum temperature yesterday: 77 °F (at 2:30 PM)
Minimum temperature yesterday: 66 °F (at 3:00 AM)
Average temperature yesterday: 70 °F

High & Low Weather Summary for the Past Weeks

 TemperatureHumidityPressure
High84 °F (Jul 25, 12:30 PM)100% (Jul 23, 7:00 AM)30.21 "Hg (Jul 23, 7:00 AM)
Low54 °F (Jul 20, 7:00 AM)45% (Jul 27, 12:00 PM)29.92 "Hg (Jul 23, 1:30 PM)
Average69 °F75%30.06 "Hg
* Reported Jul 15 4:00 AM — Jul 30 4:00 AM, Noumea, Weather by CustomWeather, © 2016

Note: Actual official high and low records may vary slightly from our data, if they occured in-between our weather recording intervals... More about our weather records

Advertising

Noumea Weather History for the Previous 24 Hours

Scroll right to see more
 ConditionsComfort  
Time TempWeatherWind HumidityBarometerVisibility
4:00 AM
Sat, Jul 30
68 °FPartly cloudy.3 mph94%29.95 "HgN/A
3:30 AM68 °FLow clouds.No wind94%29.95 "HgN/A
3:00 AM68 °FDrizzle. Mostly cloudy.2 mph100%29.98 "Hg4 mi
2:30 AM70 °FMostly cloudy.1 mph94%29.98 "HgN/A
2:00 AM68 °FMostly cloudy.5 mph100%29.98 "HgN/A
1:30 AM70 °FPartly cloudy.7 mph94%29.98 "HgN/A
1:00 AM68 °FLight rain. Mostly cloudy.No wind94%29.98 "HgN/A
12:30 AM68 °FLight rain. Partly cloudy.No wind94%30.01 "HgN/A
12:00 AM68 °FMostly cloudy.No wind94%30.01 "HgN/A
11:30 PM
Fri, Jul 29
70 °FMostly cloudy.2 mph88%30.01 "HgN/A
11:00 PM68 °FPassing clouds.5 mph94%30.01 "HgN/A
10:30 PM70 °FMostly cloudy.7 mph88%30.01 "HgN/A
10:00 PM70 °FMostly cloudy.5 mph88%30.01 "HgN/A
9:30 PM70 °FOvercast.6 mph88%30.01 "HgN/A
9:00 PM70 °FPassing clouds.2 mph88%30.01 "HgN/A
8:30 PM70 °FMostly cloudy.2 mph88%30.01 "HgN/A
8:00 PM70 °FPassing clouds.6 mph88%29.98 "HgN/A
7:30 PM70 °FPartly cloudy.5 mph88%29.98 "HgN/A
7:00 PM70 °FPartly cloudy.6 mph88%29.98 "HgN/A
6:30 PM70 °FMostly cloudy.12 mph88%29.98 "HgN/A
6:00 PM70 °FPartly cloudy.12 mph88%29.98 "HgN/A
5:30 PM70 °FOvercast.12 mph94%29.95 "HgN/A
5:00 PM70 °FOvercast.14 mph88%29.95 "HgN/A
4:30 PM70 °FMostly cloudy.12 mph94%29.95 "HgN/A
4:00 PM70 °FMore clouds than sun.12 mph88%29.92 "HgN/A
3:30 PM70 °FBroken clouds.10 mph94%29.95 "HgN/A
3:00 PM72 °FMostly cloudy.14 mph94%29.95 "HgN/A
2:30 PM77 °FBroken clouds.12 mph69%29.95 "HgN/A
2:00 PM75 °FCloudy.12 mph74%29.95 "HgN/A
1:30 PM73 °FBroken clouds.10 mph83%29.95 "HgN/A
1:00 PM73 °FMore clouds than sun.14 mph83%29.95 "HgN/A
12:30 PM73 °FPartly sunny.13 mph83%29.98 "HgN/A
12:00 PM75 °FBroken clouds.13 mph74%29.98 "HgN/A
11:30 AM75 °FOvercast.10 mph74%29.98 "HgN/A
11:00 AM73 °FOvercast.8 mph78%30.01 "HgN/A
10:30 AM73 °FMostly cloudy.10 mph78%30.01 "HgN/A
10:00 AM73 °FPartly sunny.6 mph78%30.04 "HgN/A
9:30 AM72 °FBroken clouds.5 mph83%30.04 "HgN/A
9:00 AM70 °FCloudy.8 mph88%30.04 "HgN/A
8:30 AM70 °FOvercast.2 mph88%30.04 "HgN/A
8:00 AM68 °FMore clouds than sun.2 mph88%30.04 "HgN/A
7:30 AM66 °FBroken clouds.2 mph94%30.04 "HgN/A
7:00 AM66 °FMostly cloudy.3 mph94%30.04 "HgN/A
6:30 AM66 °FMostly cloudy.2 mph88%30.01 "HgN/A
6:00 AM66 °FPartly sunny.2 mph94%30.01 "HgN/A
5:30 AM66 °FMostly cloudy.6 mph94%29.98 "HgN/A
5:00 AM66 °FMostly cloudy.2 mph88%29.98 "HgN/A
Weather by CustomWeather, © 2016

See weather overviewHow to use our weather pages